Regional Weather Roundup
Issued by NWS

Home | Current Version | Previous Version | Graphics & Text | Print | Product List | Glossary Off
Versions: 1 2 3 4 5 6 7 8 9 10 11 12 13 14 15 16 17 18 19 20 21 22 23 24 25 26 27 28 29 30 31 32 33 34 35 36 37 38 39 40 41 42 43 44 45 46 47 48 49 50

000
ASUS43 KLSX 040807
RWRMO

WEATHER SUMMARY FOR MISSOURI
NATIONAL WEATHER SERVICE SPRINGFIELD MO
300 AM CDT SAT JUL 04 2015

NOTE: "FAIR" INDICATES FEW OR NO CLOUDS BELOW 12,000 FEET WITH NO
       SIGNIFICANT WEATHER AND/OR OBSTRUCTIONS TO VISIBILITY.
       CURRENT SKY AND/OR WEATHER CONDITIONS ARE NOT AVAILABLE FOR
       CHILLICOTHE AND FARMINGTON.

MOZ001>031-035>038-043-044-053-054-040900-
...NORTHERN AND WESTERN MISSOURI...

CITY           SKY/WX    TMP DP  RH WIND       PRES   REMARKS
KANSAS CTY INT CLEAR     66  57  72 E5        29.98F
KANSAS C DTWN  LGT RAIN  67  62  84 CALM      29.98S
LEE`S SUMMIT   CLEAR     64  61  90 CALM      29.99F
ST JOSEPH      CLEAR     60  58  92 NW3       29.99S
CHILLICOTHE      N/A     61  59  93 CALM      30.00F
KIRKSVILLE     CLEAR     58  56  93 CALM      30.00S FOG

$$
MOZ066>068-077>081-088>096-101>105-040900-
...SOUTHWEST MISSOURI...

CITY           SKY/WX    TMP DP  RH WIND       PRES   REMARKS
SPRINGFIELD    CLOUDY    69  64  84 NE5       29.97S
JOPLIN         PTCLDY    68  67  96 NE3       29.97S

$$
MOZ032>034-039>042-045>050-055>058-069>072-040900-
...CENTRAL MISSOURI...

CITY           SKY/WX    TMP DP  RH WIND       PRES   REMARKS
COLUMBIA       CLEAR     65  60  84 NE5       29.97S
JEFFERSON CITY CLEAR     64  61  90 CALM      29.96S
ROLLA          CLEAR     64  61  90 NE3       29.96S
SEDALIA        CLEAR     64  61  90 CALM      29.99S
WHITEMAN AFB   CLEAR     62  61  97 CALM      29.97S
WARRENSBURG    CLEAR     61  61 100 CALM      29.98S FOG
OSAGE BEACH    CLEAR     63  61  94 CALM      29.97S

$$
MOZ051-052-059>065-040900-
...EAST CENTRAL MISSOURI...

CITY           SKY/WX    TMP DP  RH WIND       PRES   REMARKS
ST LOUIS INTL  CLEAR     70  65  84 CALM      29.95F HAZE
SPIRIT OF STL  CLEAR     65  65 100 CALM      29.94F FOG
ST CHARLES     CLEAR     69  67  93 CALM      29.94F FOG

$$
MOZ072>076-082>087-097>100-106>115-040900-
...SOUTH CENTRAL AND SOUTHEAST MISSOURI...

CITY           SKY/WX    TMP DP  RH WIND       PRES   REMARKS
CAPE GIRARDEAU MOCLDY    68  67  96 CALM      29.90F
FARMINGTON     CLEAR     68  64  88 N3        29.98S
POPLAR BLUFF   CLEAR     70  68  93 N3        29.89F
WEST PLAINS    CLEAR     67  63  87 N3        29.97S

$$


USA.gov is the U.S. government's official web portal to all federal, state and local government web resources and services.